User: anonymous   Login
Location: Pic du Midi - T1M
(42.9366°N, 0.1426°E)
Time: 12:09:45
(UTC+01:00)
Language:

NOAA 15 - Orbit

View from above orbital plane
View from above orbital plane
View from above satellite
View from above satellite

Ground track
Ground track

The orbit data is extracted from the following two-line orbital elements,

1 25338U 98030A   21264.13977904  .00000039  00000-0  34682-4 0  9995
2 25338  98.6765 291.7807 0010415   8.6742 351.4616 14.26058764214888
Epoch (UTC): 21 September 2021 03:21:16
Eccentricity: 0.0010415
inclination: 98.6765°
perigee height: 797 km
apogee height: 812 km
right ascension of ascending node: 291.7807°
argument of perigee: 8.6742°
revolutions per day: 14.26058764
mean anomaly at epoch: 351.4616°
orbit number at epoch: 21488

The dashed part of the orbit path shows where the satellite is in the earth's shadow,  

DLR